Location: Ferchesar
(52.6477°N, 12.4298°E)
Time: 08:28:06
(UTC+01:00)

Vanguard 3 - Pass Details

Date: 10 December 2021
Orbit: 508 x 3260 km, 33.3° (Epoch: 25 January)

Event Time Altitude Azimuth Distance (km) Brightness Sun altitude
Exits shadow 00:27:11 14° 111° (ESE) 5,824 11.3 -59.9°
Drops below altitude 10° 00:30:36 10° 102° (ESE) 6,198 11.6 -59.8°
Sets 00:37:29 0° 87° (E) 7,111 12.1 -59.5°
